This demonstration page uses our WeatherBlox Daily Observations layout. Learn more.

Left ArrowRight Arrow

Hourly Observations for November 11, 2021

Temp ( °F °C ) Dew Point ( °F °C ) Humidity (%) Winds ( mph kmh ) Pressure ( in mb ) Visibility ( mi km ) Precip ( " mm )
12:53 am 00:53 Clear 49 9.4 46 7.8 90 90 Calm 30.10 1019 10 16 0.00 0.00
1:53 am 01:53 Mostly Clear 50 10 46 7.8 86 86 Calm 30.09 1019 10 16 0.00 0.00
2:53 am 02:53 Partly Cloudy 50 10 47 8.3 89 89 Calm 30.09 1019 10 16 0.00 0.00
3:53 am 03:53 Clear 50 10 46 7.8 86 86 Calm 30.07 1018 10 16 0.00 0.00
4:53 am 04:53 Clear 47 8.3 45 7.2 93 93 Calm 30.06 1018 10 16 0.00 0.00
5:53 am 05:53 Partly Cloudy 48 8.9 46 7.8 93 93 Calm 30.06 1018 10 16 0.00 0.00
6:53 am 06:53 Mostly Cloudy 50 10 48 8.9 93 93 Calm 30.08 1019 10 16 0.00 0.00
7:53 am 07:53 Mostly Cloudy 50 10 48 8.9 93 93 Calm 30.08 1019 10 16 0.00 0.00
8:45 am 08:45 Mostly Cloudy 58 14.4 53 11.7 84 84 Calm 30.10 1019 10 16 0.00 0.00
8:53 am 08:53 Cloudy 59 15 54 12.2 83 83 Calm 30.09 1019 10 16 0.00 0.00
9:53 am 09:53 Cloudy 63 17.2 57 13.9 81 81 SSE 3 6 30.08 1019 10 16 0.00 0.00
10:32 am 10:32 Cloudy 64 17.8 57 13.9 78 78 SSW 6 9 30.08 1018 10 16 0.00 0.00
10:53 am 10:53 Cloudy 64 17.8 58 14.4 81 81 S 7 11 30.07 1018 10 16 0.00 0.00
11:53 am 11:53 Cloudy 65 18.3 59 15 81 81 S 6 9 30.04 1017 10 16 0.00 0.00
12:53 pm 12:53 Cloudy 67 19.4 59 15 76 76 S 12 19 30.00 1016 10 16 0.00 0.00
1:39 pm 13:39 Mostly Cloudy 71 21.7 58 14.4 63 63 S 12 19 29.94 1014 10 16 0.00 0.00
1:53 pm 13:53 Mostly Cloudy 71 21.7 58 14.4 63 63 S 10 17 29.95 1014 10 16 0.00 0.00
2:53 pm 14:53 Partly Cloudy 72 22.2 57 13.9 59 59 S 9 15 29.92 1013 10 16 0.00 0.00
3:53 pm 15:53 Cloudy 74 23.3 57 13.9 56 56 S 8 13 29.91 1013 10 16 0.00 0.00
4:53 pm 16:53 Cloudy 72 22.2 56 13.3 57 57 S 10 17 29.90 1013 10 16 0.00 0.00
5:53 pm 17:53 Cloudy 71 21.7 57 13.9 61 61 S 7 11 29.91 1013 10 16 0.00 0.00
6:53 pm 18:53 Cloudy with Light Rain 68 20 58 14.4 70 70 W 3 6 29.93 1014 10 16 0.00 0.00
7:25 pm 19:25 Cloudy with Heavy Rain 62 16.7 60 15.6 93 93 NW 21 33 29.95 1014 2 3 0.15 3.81
7:30 pm 19:30 Cloudy with Rain 62 16.7 59 15 90 90 NW 20 31 29.95 1014 3 5 0.17 4.32
7:38 pm 19:38 Cloudy with Heavy Rain 61 16.1 59 15 93 93 NW 12 19 29.96 1015 2 3 0.37 9.40
7:43 pm 19:43 Cloudy with Heavy Rain 61 16.1 59 15 93 93 W 10 17 29.97 1015 2 3 0.40 10.16
7:53 pm 19:53 Cloudy with Heavy Rain 61 16.1 60 15.6 97 97 W 5 7 29.98 1015 3 5 0.45 11.43
8:53 pm 20:53 Cloudy with Rain 60 15.6 59 15 96 96 WSW 5 7 30.00 1016 5 8 0.19 4.83
9:53 pm 21:53 Mostly Cloudy 60 15.6 59 15 96 96 SSW 5 7 29.99 1016 10 16 0.08 2.03
10:10 pm 22:10 Mostly Cloudy 60 15.6 58 14.4 93 93 SW 3 6 30.01 1016 10 16 0.00 0.00
10:31 pm 22:31 Mostly Clear 60 15.6 58 14.4 93 93 WSW 3 6 30.01 1016 10 16 0.00 0.00
10:39 pm 22:39 Mostly Clear 60 15.6 58 14.4 93 93 VRB 3 6 30.01 1016 10 16 0.00 0.00
10:53 pm 22:53 Clear 60 15.6 58 14.4 93 93 WSW 3 6 30.01 1016 10 16 0.00 0.00
11:51 pm 23:51 Mostly Cloudy 59 15 55 13 88 88 W 8 13 30.03 1017 10 16 0.00 0.00
11:53 pm 23:53 Mostly Cloudy 59 15 56 13.3 90 90 WNW 7 11 30.03 1017 10 16 0.00 0.00

Powered by AerisWeather